This is the latest recevied weather packets stored in our database for station/object K4CRS-13. If no packets are shown the sender has not sent any weather packets the latest 10 day(s).
| Time | Temp. | Humidity | Pressure | Rain* | Wind** | Luminosity | Snow |
|---|---|---|---|---|---|---|---|
| 1777741762 | 18.89° C | 42% | 1052.2 hPa | 0 mm | - | 845 W/m² | - |
| 1777741458 | 18.33° C | 43% | 1052.4 hPa | 0 mm | - | 836 W/m² | - |
| 1777741154 | 18.33° C | 41% | 1052.4 hPa | 0 mm | - | 874 W/m² | - |
| 1777740852 | 17.78° C | 40% | 1052.3 hPa | 0 mm | - | 826 W/m² | - |
| 1777740548 | 17.78° C | 42% | 1052.4 hPa | 0 mm | - | 823 W/m² | - |
| 1777740245 | 17.22° C | 41% | 1052.4 hPa | 0 mm | - | 818 W/m² | - |
| 1777739941 | 17.78° C | 43% | 1052.6 hPa | 0 mm | - | 810 W/m² | - |
| 1777739637 | 17.22° C | 43% | 1052.6 hPa | 0 mm | - | 807 W/m² | - |
| 1777739335 | 17.78° C | 41% | 1052.6 hPa | 0 mm | - | 817 W/m² | - |
| 1777739032 | 17.22° C | 45% | 1052.6 hPa | 0 mm | - | 794 W/m² | - |
| 1777738729 | 17.22° C | 44% | 1052.8 hPa | 0 mm | - | 788 W/m² | - |
| 1777738425 | 17.22° C | 44% | 1052.8 hPa | 0 mm | - | 786 W/m² | - |
| 1777738123 | 17.78° C | 39% | 1052.8 hPa | 0 mm | - | 776 W/m² | - |
| 1777737821 | 17.22° C | 46% | 1052.8 hPa | 0 mm | - | 769 W/m² | - |
| 1777737520 | 16.67° C | 47% | 1052.4 hPa | 0 mm | - | 759 W/m² | - |
| 1777737217 | 16.67° C | 40% | 1052.9 hPa | 0 mm | - | 749 W/m² | - |
| 1777736913 | 16.67° C | 43% | 1052.5 hPa | 0 mm | - | 743 W/m² | - |
| 1777736305 | 16.67° C | 48% | 1052.5 hPa | 0 mm | - | 723 W/m² | - |
| 1777736001 | 16.11° C | 48% | 1052.5 hPa | 0 mm | - | 712 W/m² | - |
| 1777735699 | 16.11° C | 46% | 1052.9 hPa | 0 mm | - | 703 W/m² | - |
| 1777735396 | 16.11° C | 47% | 1052.6 hPa | 0 mm | - | 691 W/m² | - |
| 1777735094 | 15.56° C | 49% | 1052.5 hPa | 0 mm | - | 677 W/m² | - |
| 1777734791 | 15.56° C | 46% | 1052.5 hPa | 0 mm | - | 668 W/m² | - |
| 1777734489 | 15.56° C | 47% | 1052.8 hPa | 0 mm | - | 654 W/m² | - |
| 1777734185 | 15.56° C | 54% | 1052.3 hPa | 0 mm | - | 643 W/m² | - |
* Rain latest hour (hover to see other rain measurements)
** Current wind speed in m/s (hover to see current wind gust speed)